FW5697 Weather Reports


time (UTC)temp
C
wind
direction
speed
KPH
gust
KPH
rain 1hr
cm
rain 24hr
cm
rain mn
cm
humidity
%
barometer
mb
20260902123041 22 0 0.0 0.0 0.00 0.00 0.00 97 1019.6
20260902121535 21 0 0.0 0.0 0.00 0.00 0.00 97 1019.5
20260902120036 21 0 0.0 0.0 0.00 0.00 0.00 97 1019.2
20260902114539 21 0 0.0 0.0 0.00 0.00 0.00 97 1019.1
20260902113035 21 0 0.0 0.0 0.00 0.00 0.00 96 1019.1
20260902111532 21 0 0.0 0.0 0.00 0.00 0.00 96 1019.0
20260902110034 21 0 0.0 0.0 0.00 0.00 0.00 96 1018.9
20260902104546 21 0 0.0 0.0 0.00 0.00 0.00 96 1018.7
20260902103040 21 0 0.0 0.0 0.00 0.00 0.00 96 1018.6
20260902101531 22 0 0.0 0.0 0.00 0.00 0.00 96 1018.5
20260902100033 22 0 0.0 0.0 0.00 0.00 0.00 96 1018.4
20260902094533 22 0 0.0 0.0 0.00 0.00 0.00 96 1018.4
20260902093035 22 0 0.0 0.0 0.00 0.00 0.00 96 1018.3
20260902091531 22 0 0.0 0.0 0.00 0.00 0.00 96 1018.1
20260902090032 22 0 0.0 0.0 0.00 0.00 0.00 96 1018.1
20260902084533 22 0 0.0 0.0 0.00 0.00 0.00 96 1017.9
20260902083031 22 0 0.0 0.0 0.00 0.00 0.00 96 1017.8
20260902081535 22 0 0.0 1.6 0.00 0.00 0.00 96 1017.8
20260902080034 22 0 0.0 0.0 0.00 0.00 0.00 95 1017.7
20260902074534 22 0 0.0 0.0 0.00 0.00 0.00 95 1017.7
20260902073045 22 0 0.0 0.0 0.00 0.00 0.00 95 1017.8
20260902071532 22 0 0.0 0.0 0.00 0.00 0.00 95 1017.9
20260902070036 23 0 0.0 0.0 0.00 0.00 0.00 95 1018.0
20260902064538 23 0 0.0 0.0 0.00 0.00 0.00 95 1017.8
20260902063032 23 0 0.0 0.0 0.00 0.00 0.00 95 1017.8
20260902061534 23 0 0.0 1.6 0.00 0.00 0.00 95 1018.0
20260902060034 23 0 0.0 0.0 0.00 0.00 0.00 94 1018.2
20260902054531 23 0 0.0 0.0 0.00 0.00 0.00 94 1018.1
20260902053042 23 0 0.0 0.0 0.00 0.00 0.00 94 1018.2
20260902051535 23 0 0.0 0.0 0.00 0.00 0.00 94 1018.1
20260902050031 23 0 0.0 0.0 0.00 0.00 0.00 93 1018.1
20260902044534 23 0 0.0 0.0 0.00 0.00 0.00 93 1018.1
20260902043035 23 0 0.0 0.0 0.00 0.00 0.00 93 1018.1
20260902041536 24 0 0.0 0.0 0.00 0.00 0.00 93 1018.0
20260902040035 24 0 0.0 0.0 0.00 0.00 0.00 92 1018.0
20260902034534 24 0 0.0 0.0 0.00 0.00 0.00 92 1018.1
20260902033036 24 0 0.0 0.0 0.00 0.00 0.00 92 1018.0
20260902031534 25 0 0.0 0.0 0.00 0.00 0.00 91 1018.0
20260902030034 25 0 0.0 1.6 0.00 0.00 0.00 91 1018.1
20260902024534 25 0 0.0 0.0 0.00 0.00 0.00 90 1018.0
20260902023042 25 0 0.0 0.0 0.00 0.00 0.00 90 1018.0
20260902021533 25 0 0.0 0.0 0.00 0.00 0.00 89 1017.8
20260902020033 26 0 0.0 0.0 0.00 0.00 0.00 89 1017.9
20260902014541 26 0 0.0 0.0 0.00 0.00 0.00 87 1017.8
20260902013034 26 0 0.0 0.0 0.00 0.00 0.00 87 1017.7
20260902011542 26 0 0.0 0.0 0.00 0.00 0.00 85 1017.5
20260902010032 27 0 0.0 0.0 0.00 0.00 0.00 83 1017.3
20260902004534 27 0 0.0 0.0 0.00 0.00 0.00 80 1017.3
20260902003038 28 0 0.0 0.0 0.00 0.00 0.00 79 1017.2
20260902001533 28 0 0.0 0.0 0.00 0.00 0.00 76 1017.2
20260902000040 29 0 0.0 0.0 0.00 0.00 0.00 74 1017.2
20260901234534 30 0 0.0 0.0 0.00 0.00 0.00 70 1017.3
20260901233036 30 0 0.0 0.0 0.00 0.00 0.00 67 1017.3
20260901231535 31 0 0.0 0.0 0.00 0.00 0.00 66 1017.4
20260901230032 31 0 0.0 0.0 0.00 0.00 0.00 65 1017.3
20260901224534 31 0 0.0 0.0 0.00 0.00 0.00 63 1017.2
20260901223032 31 0 0.0 1.6 0.00 0.00 0.00 63 1017.2
20260901221538 32 101 0.0 1.6 0.00 0.00 0.00 64 1017.2
20260901220039 33 0 0.0 0.0 0.00 0.00 0.00 59 1017.2
20260901214547 34 0 0.0 4.8 0.00 0.00 0.00 52 1017.2
20260901213034 35 15 0.0 3.2 0.00 0.00 0.00 54 1017.2
20260901211534 35 239 0.0 4.8 0.00 0.00 0.00 52 1017.3
20260901210033 33 313 0.0 3.2 0.00 0.00 0.00 50 1017.3
20260901204537 32 0 0.0 1.6 0.00 0.00 0.00 62 1017.4
20260901203034 32 0 0.0 1.6 0.00 0.00 0.00 62 1017.5
20260901201535 33 0 0.0 3.2 0.00 0.00 0.00 53 1017.5
20260901200034 33 0 0.0 3.2 0.00 0.00 0.00 56 1017.6
20260901194537 33 55 0.0 3.2 0.00 0.00 0.00 54 1017.8
20260901193035 34 105 0.0 3.2 0.00 0.00 0.00 52 1017.9
20260901191547 34 0 0.0 3.2 0.00 0.00 0.00 55 1018.1
20260901190043 33 0 0.0 4.8 0.00 0.00 0.00 49 1018.3
20260901184534 32 0 0.0 3.2 0.00 0.00 0.00 57 1018.5
20260901183055 32 38 1.6 8.0 0.00 0.00 0.00 55 1018.7
20260901181537 33 39 0.0 4.8 0.00 0.00 0.00 58 1018.8
20260901180038 32 24 1.6 6.4 0.00 0.00 0.00 60 1019.0
20260901174533 32 172 1.6 8.0 0.00 0.00 0.00 56 1019.0
20260901173039 32 21 0.0 9.7 0.00 0.00 0.00 62 1019.2
20260901171534 32 64 1.6 8.0 0.00 0.00 0.00 58 1019.5
20260901170036 31 0 0.0 8.0 0.00 0.00 0.00 59 1019.7
20260901164532 30 0 0.0 4.8 0.00 0.00 0.00 64 1019.8
20260901163032 30 24 1.6 8.0 0.00 0.00 0.00 65 1020.0
20260901161535 30 11 0.0 4.8 0.00 0.00 0.00 66 1020.2
20260901160036 31 0 1.6 3.2 0.00 0.00 0.00 67 1020.3
20260901154557 30 0 0.0 4.8 0.00 0.00 0.00 69 1020.4
20260901153043 29 0 0.0 6.4 0.00 0.00 0.00 73 1020.5
20260901151534 28 0 1.6 4.8 0.00 0.00 0.00 75 1020.4
20260901150033 28 234 0.0 3.2 0.00 0.00 0.00 77 1020.4
20260901144537 27 0 0.0 3.2 0.00 0.00 0.00 80 1020.4
20260901143036 27 210 0.0 3.2 0.00 0.00 0.00 83 1020.5
20260901141534 26 51 1.6 4.8 0.00 0.00 0.00 85 1020.6
20260901140034 26 0 0.0 3.2 0.00 0.00 0.00 88 1020.6
20260901134535 25 0 0.0 3.2 0.00 0.00 0.00 92 1020.6
20260901133034 23 0 0.0 3.2 0.00 0.00 0.00 95 1020.5
20260901131536 23 0 0.0 1.6 0.00 0.00 0.00 97 1020.4
20260901130035 22 0 0.0 0.0 0.00 0.00 0.00 98 1020.4
20260901124541 22 0 0.0 0.0 0.00 0.00 0.00 98 1020.4